{"data":{"norad_id":68731,"intl_designator":"2026-082D","name":"STARLINK-37202","alt_names":[],"object_type":"PAYLOAD","status":"ACTIVE","operator":null,"country":"US","launch_date":"2026-04-15","launch_site_code":"AFWTR","launch_vehicle":null,"mission":null,"orbit_class":"UNKNOWN","rcs_meters":null,"size_class":null,"mass_kg":null,"dimensions":null,"purposes":["comms"],"wikipedia_slug":null,"has_3d_model":false,"image_url":null,"decayed_at":null,"tle_current":{"epoch":"2026-05-25T04:00:03.998880Z","epoch_age_seconds":61458,"freshness":"FRESH","line1":"1 68731U 26082D   26145.16671295 -.02490103  00000+0 -39959-1 0  9994","line2":"2 68731  97.2848   8.8053 0002170  83.3687  69.6863 15.56819273  5835","mean_motion":15.56819273,"eccentricity":0.000217,"inclination_deg":97.2848,"raan_deg":8.8053,"arg_perigee_deg":83.3687,"mean_anomaly_deg":69.6863,"bstar":-0.039959,"rev_number":583,"period_min":92.496285533844,"perigee_km":395.39920152221,"apogee_km":398.33955429022,"semimajor_km":6775.0063779062,"source":"CELESTRAK","updated_at":"2026-05-25T13:38:22.004871Z"}}}